Regional Weather Roundup
Issued by NWS Sterling, VA

Home | Current Version | Previous Version | Graphics & Text | Print | Product List | Glossary On
Versions: 1 2 3 4 5 6 7 8 9 10 11 12 13 14 15 16 17 18 19 20 21 22 23 24 25 26 27 28 29 30 31 32 33 34 35 36 37 38 39 40 41 42 43 44 45 46 47 48 49 50
000
ASUS41 KLWX 111410
RWRLWX

REGIONAL WEATHER ROUNDUP
NATIONAL WEATHER SERVICE BALTIMORE MD/WASHINGTON DC
1000 AM EDT FRI JUL 11 2014

Note: "FAIR" indicates few or no clouds below 12,000 feet
with no significant weather and/or obstructions to visibility.
 TC=TEMPERATURE CELSIUS

 * =Non NWS site. Station does not report precipitation (e.g. rain,
    snow, etc.), thunder, or fog.

DCZ001-MDZ009-015-VAZ040>042-051-053>054-111500-
WASHINGTON METRO

CITY           SKY/WX    TMP DP  RH WIND       PRES   REMARKS
WASHINGTON NAT MOSUNNY   79  66  64 NE5       30.20R
DULLES         MOSUNNY   73  63  70 CALM      30.21S
ANDREWS AFB    MOSUNNY   74  67  78 NE8       30.20R
FT BELVOIR     SUNNY     77  66  69 NE3       30.20S
QUANTICO       MOSUNNY   76  66  71 VRB3      30.21R
COLLEGE PARK*  MOSUNNY   77  68  73 CALM      30.20S
LEESBURG*      SUNNY     77  66  69 NE7       30.23S
GAITHERSBURG*  SUNNY     73  66  78 NE3       30.25S

$$

MDZ006>007-011-014-111500-
BALTIMORE METRO

CITY           SKY/WX    TMP DP  RH WIND       PRES   REMARKS
BWI AIRPORT    MOSUNNY   77  66  69 NE7       30.19S
MD SCIENCE CTR   N/A     77  66  68 MISG      30.20R
MARTIN STATE   MOSUNNY   79  70  73 NE3       30.21R
ANNAPOLIS      CLOUDY    74  68  81 N8        30.19R
FORT MEADE*    PTSUNNY   77  66  69 E6        30.22S

$$

MDZ012-015-019>023-111500-
MARYLAND EASTERN SHORE

CITY           SKY/WX    TMP DP  RH WIND       PRES   REMARKS
OCEAN CITY     CLOUDY    73  69  87 NE7       30.18R
SALISBURY      CLOUDY    77  69  76 NE6       30.18R
BAY BRIDGE AP*   N/A     73  68  83 N5        30.20R
CAMBRIDGE*     PTSUNNY   77  68  73 N7        30.18R
EASTON*        CLOUDY    77  75  94 NE7       30.22R

$$

MDZ017>025-111500-
SOUTHERN MARYLAND

CITY           SKY/WX    TMP DP  RH WIND       PRES   REMARKS
PATUXENT RIVER PTSUNNY   75  69  81 NE7       30.18R
ST INIGOES     PTSUNNY   75  68  78 N7        30.18R
LEONARDTOWN*   CLOUDY    73  64  73 MISG      30.20R

$$

MDZ003>005-111500-
NORTH CENTRAL MARYLAND

CITY           SKY/WX    TMP DP  RH WIND       PRES   REMARKS
FREDERICK*     SUNNY     75  70  83 VRB3      30.24R
HAGERSTOWN APT SUNNY     74  65  73 CALM      30.22S
WESTMINSTER*   SUNNY     75  66  73 NE3       30.22S

$$

MDZ501>502-111500-
WESTERN MARYLAND

CITY           SKY/WX    TMP DP  RH WIND       PRES   REMARKS
OAKLAND*       SUNNY     68 N/A N/A CALM      30.30S
CUMBERLAND*    CLOUDY    68  64  88 CALM      30.29R

$$

VAZ025>031-111500-
SHENANDOAH VALLEY

CITY           SKY/WX    TMP DP  RH WIND       PRES   REMARKS
WINCHESTER*    MOSUNNY   75  63  64 N3        30.23R
STAUNTON*      CLOUDY    66  63  90 CALM      30.27R FOG

$$

WVZ021-048>050-054>055-111500-
EASTERN WEST VIRGINIA PANHANDLE

CITY           SKY/WX    TMP DP  RH WIND       PRES   REMARKS
MARTINSBURG    SUNNY     76  62  62 VRB3      30.23S
PETERSBURG*    CLOUDY    65  58  79 CALM      30.27R

$$

VAZ036>039-050-111500-
CENTRAL FOOTHILLS

CITY           SKY/WX    TMP DP  RH WIND       PRES   REMARKS
CHARLOTTESVILL SUNNY     75  65  70 VRB6      30.21R
ORANGE*        SUNNY     77  66  69 N5        30.22S

$$

VAZ055>057-111500-
NORTH AND CENTRAL PIEDMONT

CITY           SKY/WX    TMP DP  RH WIND       PRES   REMARKS
FREDERICKSBRG* CLOUDY    74  70  86 N6        30.19S
STAFFORD*      CLOUDY    73  73 100 NE5       30.25R

$$

NCZ024-NYZ072-PAZ021-071-VAZ022-071-111500-
OTHER REGIONAL OBSERVATIONS

CITY           SKY/WX    TMP DP  RH WIND       PRES   REMARKS
NEW YORK CITY  MOSUNNY   76  55  48 VRB5      30.23S
PHILADELPHIA   MOSUNNY   80  62  54 NE14      30.20R
PITTSBURGH     MOSUNNY   74  62  66 CALM      30.23R
ROANOKE        MOSUNNY   72  65  78 NE3       30.26R
RICHMOND       CLOUDY    73  69  87 N5        30.19R FOG
RALEIGH        CLOUDY    73  68  84 E6        30.20R

$$

ANZ530>537-111500-
MARINE OBSERVATIONS

STATION/POSITION TIME  TEMP    WIND        PRES
                       AIR SEA DIR/SP/G
                 (UTC) (F)     (DEG/KT/KT) (MB)
THOMAS PT LIGHT  1400   72 78   40/  9/ 10 1022.9R
BALT KEY BRIDGE  1400   75      40/  6/  6 1022.2R
COVE POINT       1400   74      10/  6/  8 1021.9R
LEWISETTA        1400   75 80   50/  6/  8 1021.8R
SOLOMONS ISLAND  1400      79                N/A
PINEY POINT      1400           90/  6/  9   N/A

$$




USA.gov is the U.S. government's official web portal to all federal, state and local government web resources and services.